World > North America > United States > North Carolina

Tyner, North Carolina Regional Weather

Lat: 36.25N, Lon: 76.63W
Wx Zone: NCZ031Web Search

Helpful Tip: You can add this page to Bookmarks by pressing the Ctrl key & d key at the same time. Mac users press command & d.

Feedback


°F Click to change Tyner hourly weather to Imperial units.Click to change Tyner hourly weather to Metric units. °C
Tyner Weather Map
UTC Time: 5/18/2021, 22:48
Your Time:

Tyner, NC Regional Weather

Expires:202105182300;;332035
ASUS42 KMHX 182225
RWRMHX
WEATHER ROUNDUP FOR EASTERN NORTH CAROLINA
NATIONAL WEATHER SERVICE NEWPORT/MOREHEAD CITY NC
600 PM EDT TUE MAY 18 2021

NOTE: "FAIR" INDICATES FEW OR NO CLOUDS BELOW 12,000 FEET
WITH NO SIGNIFICANT WEATHER AND/OR OBSTRUCTIONS TO VISIBILITY


NCZ015>017-031-032-045>047-102-103-182300-
NORTH COAST
  
CITY           SKY/WX    TMP DP  RH WIND       PRES   REMARKS
EDENTON        MOSUNNY   71  61  70 SE12      30.34R                  
ELIZABETH CITY SUNNY     71  54  54 E13       30.33S                  
KITTY HAWK     CLEAR     64  55  73 NE5       30.33S                  
MANTEO         SUNNY     66  58  75 NE9       30.34S                  

$$


SKY/WX - Weather  TMP - Temperature  DP - Dew Point  RH - Relative Humidity
WIND - Wind Direction/Speed PRES - Barometric Pressure VSB - Visibility
WCI - Wind Chill Index E13G22 Wind - East Wind 13 mph/Gusts of 22 mph